User: anonymous   Login
Location: Caltech
(34.1382°N, 118.1253°W)
Time: 22:52:10
(UTC-08:00)
Language:

ATLAS 5 CENTAUR R/B - Orbit

View from above orbital plane
View from above orbital plane
View from above satellite
View from above satellite

Ground track
Ground track

The orbit data is extracted from the following two-line orbital elements,

1 30778U 07006G   14356.22703137  .17732550  21856-5  10174-2 0  2436
2 30778 035.6699 319.0437 0004377 213.3212 146.8876 16.41560411434412
Epoch (UTC): 22 December 2014 05:26:55
Eccentricity: 0.0004377
inclination: 35.6699°
perigee height: 159 km
apogee height: 164 km
right ascension of ascending node: 319.0437°
argument of perigee: 213.3212°
revolutions per day: 16.41560411
mean anomaly at epoch: 146.8876°
orbit number at epoch: 43441

The dashed part of the orbit path shows where the satellite is in the earth's shadow,  

DLR